Weather History for KTOP - April, 2014

Change the Weather History Date:

Friday, April 11, 2014

  Actual Average Record
Temperature  
Mean Temperature 59 °F 54 °F  
Max Temperature 78 °F 65 °F 90 °F (1996)
Min Temperature 39 °F 42 °F 25 °F (1940)
Degree Days  
Heating Degree Days 6 12  
Month to date heating degree days 159 149  
Since 1 July heating degree days 5191 4744  
Cooling Degree Days 0 1  
Month to date cooling degree days 0 4  
Year to date cooling degree days 0 7  
Growing Degree Days 8 (Base 50)    
Moisture  
Dew Point 35 °F    
Average Humidity 49    
Maximum Humidity 79    
Minimum Humidity 19    
Precipitation  
Precipitation 0.00 in 0.11 in 1.09 in (1920)
Month to date precipitation 0.28 1.15  
Year to date precipitation 2.67 5.82  
Snow  
Snow 0.00 in 0.00 in 1.10 in (1957)
Month to date snowfall 0.0 0.2  
Year to date snowfall 23.0 11.2  
Since 1 July snowfall 27.3 17.7  
Snow Depth 0.00 in    
Sea Level Pressure  
Sea Level Pressure 29.99 in    
Wind  
Wind Speed 6 mph (ESE)    
Max Wind Speed 16 mph    
Max Gust Speed 20 mph    
Visibility 10 miles    
Events      
T = Trace of Precipitation, MM = Missing Value Source: NWS Daily Summary

Daily Weather History Graph

Daily Weather History Graph

Search for Another Location

Airport or City:

Trip Planner

Search our weather history database for the weather conditions in past years. The results will help you decide how hot, cold, wet, or windy it might be!

Date:

Astronomy

Apr. 11, 2014 Rise Set
Actual Time 6:51 AM CDT 7:55 PM CDT
Civil Twilight 6:24 AM CDT 8:23 PM CDT
Nautical Twilight 5:51 AM CDT 8:56 PM CDT
Astronomical Twilight 5:17 AM CDT 9:30 PM CDT
Moon 4:38 PM CDT (4/11) 4:45 AM CDT (4/11)
Length of Visible Light 13h 59m
Length of Day
13h 04m
Waxing Gibbous, 87% of the Moon is Illuminated
Apr 11
Waxing Gibbous
Apr 15
Full
Apr 22
Last Quarter
Apr 29
New
May 6
First Quarter

Hourly Weather History & Observations

Time (CDT) Temp. Windchill Dew Point Humidity Pressure Visibility Wind Dir Wind Speed Gust Speed Precip Events Conditions
12:53 AM 46.0 °F - 34.0 °F 63% 30.02 in 10.0 mi Calm Calm - N/A   Clear
1:53 AM 44.1 °F - 34.0 °F 68% 30.03 in 10.0 mi Calm Calm - N/A   Clear
2:53 AM 45.0 °F - 34.0 °F 65% 30.03 in 10.0 mi Calm Calm - N/A   Clear
3:53 AM 43.0 °F - 35.1 °F 74% 30.05 in 10.0 mi Calm Calm - N/A   Clear
4:53 AM 39.9 °F - 33.1 °F 77% 30.04 in 10.0 mi Calm Calm - N/A   Clear
5:53 AM 42.1 °F - 35.1 °F 76% 30.04 in 10.0 mi Calm Calm - N/A   Partly Cloudy
6:53 AM 39.9 °F 37.8 °F 33.1 °F 77% 30.04 in 10.0 mi ESE 3.5 mph - N/A   Clear
7:53 AM 43.0 °F 41.3 °F 36.0 °F 76% 30.06 in 10.0 mi NNE 3.5 mph - N/A   Clear
8:53 AM 48.0 °F - 36.0 °F 63% 30.07 in 10.0 mi Calm Calm - N/A   Clear
9:53 AM 57.9 °F - 35.1 °F 42% 30.07 in 10.0 mi ESE 4.6 mph - N/A   Clear
10:53 AM 66.0 °F - 28.0 °F 24% 30.07 in 10.0 mi ESE 11.5 mph - N/A   Clear
11:53 AM 70.0 °F - 30.0 °F 23% 30.06 in 10.0 mi ESE 10.4 mph 18.4 mph N/A   Clear
12:53 PM 72.0 °F - 30.9 °F 22% 30.03 in 10.0 mi ESE 9.2 mph - N/A   Clear
1:53 PM 75.0 °F - 30.0 °F 19% 30.00 in 10.0 mi ESE 9.2 mph - N/A   Clear
2:53 PM 77.0 °F - 33.1 °F 20% 29.98 in 10.0 mi SE 6.9 mph - N/A   Clear
3:53 PM 77.0 °F - 33.1 °F 20% 29.95 in 10.0 mi SSE 8.1 mph 17.3 mph N/A   Clear
4:53 PM 77.0 °F - 35.1 °F 22% 29.92 in 10.0 mi SE 8.1 mph - N/A   Clear
5:53 PM 78.1 °F - 37.0 °F 23% 29.89 in 10.0 mi ESE 11.5 mph - N/A   Clear
6:53 PM 75.0 °F - 39.0 °F 27% 29.89 in 10.0 mi SE 12.7 mph - N/A   Clear
7:53 PM 68.0 °F - 39.9 °F 36% 29.89 in 10.0 mi ESE 6.9 mph - N/A   Clear
8:53 PM 64.9 °F - 41.0 °F 42% 29.89 in 10.0 mi ESE 6.9 mph - N/A   Clear
9:53 PM 63.0 °F - 41.0 °F 45% 29.90 in 10.0 mi ESE 8.1 mph - N/A   Clear
10:53 PM 60.1 °F - 41.0 °F 49% 29.88 in 10.0 mi SE 6.9 mph - N/A   Clear
11:53 PM 60.1 °F - 41.0 °F 49% 29.87 in 10.0 mi ESE 5.8 mph - N/A   Clear